Location: Unspecified
(0.0000°N, 0.0000°E)
Time: 15:08:17
(UTC+00:00)

ATLAS 5 CENTAUR DEB - Visible Passes

Search period start: 15 June 2025 00:00
Search period end: 25 June 2025 00:00
Orbit: 7872 x 34821 km, 19.8° (Epoch: 10 June)

Date Brightness Start Highest point End Pass type
(mag) Time Alt. Az. Time Alt. Az. Time Alt. Az.
15 Jun ? 15:24:42 10° WSW 16:26:25 12° WSW 17:45:26 10° WSW visible
15 Jun ? 23:39:09 10° W 00:51:12 57° N 01:40:39 10° E visible
17 Jun ? 01:56:05 10° WNW 02:42:32 66° NNE 12:55:17 10° E visible
18 Jun ? 03:49:36 10° WNW 04:33:54 81° NNE 15:35:32 10° ENE visible
19 Jun ? 05:38:10 10° WNW 06:31:20 83° SSW 17:35:14 10° ENE visible
20 Jun ? 07:27:06 10° W 17:49:44 87° NW 19:25:57 10° ENE visible
21 Jun ? 09:20:47 10° W 20:17:28 70° NNW 21:14:30 10° ENE visible
22 Jun ? 11:27:36 10° W 14:19:29 37° WSW 23:05:10 10° ENE visible
23 Jun ? 14:33:56 10° WSW 15:52:16 13° WSW 17:41:03 10° WSW visible
